Temperature
30 30 30 31 31 31 31 31 32 33 33 32 32 32 33 33 32 32 31 30 29 28 27 26 26 25 24 23 22 22 21 21 21 21 20 20 20 20 20 20 20 19 18 18
30 30 31 31 31 31 31 31 31 32 33 32 31 32 33 33 32 31 30 29 27 26 25 25 24 24 23 22 22 21 21 21 21 21 21 21 21 20 20 20 19 19 18 18
29 30 31 31 31 31 31 30 31 31 31 32 31 31 32 32 31 29 28 27 26 25 24 23 23 23 22 21 21 21 21 20 20 20 20 20 20 20 20 20 19 19 19 18
30 31 31 30 30 30 29 30 30 30 30 29 30 29 30 30 28 26 25 24 24 23 23 22 22 21 21 21 20 20 20 20 20 20 20 20 19 20 20 19 19 19 18 18
29 30 30 30 30 30 30 31 30 30 29 29 29 28 29 29 26 24 23 22 21 21 21 20 20 20 20 20 20 19 19 19 19 19 19 19 19 19 19 19 19 18 18 18
30 31 31 31 31 31 31 30 30 29 27 25 25 24 26 27 26 24 22 20 20 20 19 19 19 19 19 19 19 19 18 18 18 18 18 18 18 18 18 18 18 18 17 17
28 29 31 31 30 30 30 28 27 25 21 21 21 23 24 25 25 23 22 21 20 19 18 17 17 17 17 17 17 17 17 17 17 17 17 17 17 17 17 17 17 17 17 17
26 26 29 30 30 29 29 29 27 25 25 24 23 23 23 24 23 22 21 20 19 18 17 16 16 16 15 15 15 16 16 16 16 16 16 16 16 16 16 16 16 16 16 16
27 28 30 31 31 30 29 29 29 28 28 27 27 24 22 22 22 22 21 20 19 18 17 16 16 15 15 14 14 14 14 14 14 15 15 14 15 14 15 15 15 15 15 15
29 28 30 31 31 30 30 30 29 27 26 25 27 24 22 20 20 21 21 20 19 18 18 17 16 15 14 14 14 14 14 13 14 14 14 13 14 14 14 14 14 14 14 14
30 28 29 29 28 28 28 29 28 27 27 25 25 23 23 21 21 21 21 19 19 18 17 17 16 15 14 14 14 13 13 13 13 13 13 13 13 13 13 13 13 13 13 14
29 28 27 27 27 27 28 28 28 26 25 26 25 22 22 21 21 20 19 18 17 17 16 16 15 15 14 13 13 12 12 12 12 12 11 12 11 12 12 12 12 12 13 13
28 26 25 26 26 26 27 28 28 27 26 25 24 21 21 20 20 19 18 18 17 16 16 15 14 13 13 13 12 12 11 11 11 11 11 11 11 10 10 11 11 11 11 12
27 26 26 25 27 28 28 28 28 27 25 25 24 21 20 19 19 19 18 17 17 16 16 15 14 13 12 12 12 12 11 11 11 11 10 10 10 10 10 10 10 10 10 10
28 27 27 27 29 29 28 28 28 26 25 24 23 21 20 19 19 18 18 17 17 17 16 15 14 13 13 13 12 12 12 11 11 11 11 10 10 10 10 10 10 10 10 10
27 26 26 26 28 28 27 26 26 25 24 23 23 22 20 20 19 18 18 17 17 16 16 15 14 14 13 13 12 12 12 11 11 11 11 11 10 10 10 10 10 10 10 9
27 25 25 25 27 27 25 23 23 23 23 22 21 21 20 19 18 18 17 17 17 16 15 14 14 13 13 12 12 12 11 11 11 11 10 10 10 10 10 10 10 10 9 9
25 24 24 25 26 24 22 23 22 22 22 22 21 20 19 18 18 17 17 17 15 15 14 14 13 13 12 12 12 11 11 11 11 10 10 10 10 10 10 10 10 9 9 9
26 25 24 25 25 23 22 21 21 20 20 20 19 18 18 17 17 17 17 15 15 14 14 13 13 12 12 12 11 11 11 10 10 10 10 10 10 10 9 9 9 9 9 9
27 26 25 24 23 23 21 22 21 21 20 18 18 17 17 16 16 16 15 14 14 13 13 12 12 12 12 11 11 11 10 10 10 10 10 9 9 9 9 9 9 9 8 8
25 25 25 24 23 23 21 21 21 19 18 17 17 16 16 16 15 15 14 14 13 13 12 12 12 11 11 11 10 10 10 10 9 9 9 9 9 9 9 8 8 8 8 8
24 24 23 23 22 21 20 20 19 18 17 17 16 16 15 15 14 14 14 13 13 12 12 12 11 11 10 10 10 9 9 9 9 8 8 8 8 8 8 8 8 8 8 8
24 22 22 22 21 21 20 19 18 17 17 16 15 15 15 14 14 13 13 13 12 12 11 11 10 10 9 9 9 8 8 8 8 7 7 7 7 7 7 7 7 8 8 8
23 22 22 21 22 21 20 19 17 16 16 15 15 14 14 14 13 13 13 12 12 11 10 10 9 9 8 8 7 7 7 7 6 6 6 6 6 6 6 7 7 7 7 8
23 23 22 21 21 19 19 17 16 16 15 15 14 14 14 13 13 13 12 11 11 10 9 9 8 7 7 7 6 6 6 6 6 5 5 5 6 6 6 6 6 7 7 7
23 21 20 19 18 18 17 16 16 15 15 14 14 14 13 13 13 12 11 10 10 9 8 7 7 6 6 6 5 5 5 5 5 5 5 5 5 5 5 6 6 6 7 7
Wind_Speed
10 10 8 8 7 10 13 15 14 7 3 0 8 13 9 4 4 5 5 2 3 7 8 6 7 7 9 8 9 8 9 7 5 4 5 4 3 2 1 2 5 3 2 4
7 5 6 7 7 9 10 11 12 9 5 6 10 13 12 10 7 2 1 1 1 4 6 6 4 5 7 9 9 8 8 8 6 4 2 2 2 1 2 3 4 3 2 3
2 1 4 6 6 8 8 8 10 9 9 10 13 16 16 11 4 2 2 3 4 6 5 7 5 5 5 5 7 8 8 7 5 5 3 2 2 2 2 2 2 3 1 1
5 3 5 7 7 8 8 8 10 11 12 13 15 14 11 6 4 5 7 8 9 9 9 9 7 6 6 6 4 4 6 5 4 4 1 2 2 2 0 1 2 2 1 3
6 8 7 6 6 8 8 9 12 15 15 16 14 12 6 7 8 8 8 10 12 12 13 13 11 9 8 7 5 4 4 4 3 1 1 1 3 3 2 1 1 1 3 4
11 9 6 6 6 7 10 12 14 13 10 12 11 9 4 4 8 10 11 13 11 14 15 15 14 14 14 11 8 6 4 3 3 2 3 2 4 4 5 5 4 3 4 3
11 8 5 6 7 6 9 11 9 6 2 5 8 7 1 7 10 12 13 14 15 16 16 16 16 16 15 15 13 12 11 8 7 6 5 5 5 5 5 6 6 5 4 4
4 5 4 5 7 8 9 10 10 12 10 6 11 6 5 10 12 13 14 14 15 15 15 15 15 14 14 14 15 15 13 12 11 10 9 8 7 6 5 7 7 7 6 6
5 6 7 7 7 7 7 9 12 12 14 12 3 6 6 9 8 9 11 12 12 12 12 12 12 12 11 12 12 12 11 11 11 11 10 8 9 8 8 8 7 7 7 8
8 11 11 10 9 7 8 10 8 8 10 13 12 3 4 7 5 4 8 9 9 9 10 9 9 8 8 8 7 8 7 7 8 8 8 8 8 8 8 8 9 8 9 9
11 12 12 9 7 11 11 9 8 8 9 12 14 5 4 7 6 6 8 8 8 8 8 8 7 6 6 7 7 6 6 6 5 6 6 6 6 7 7 7 7 8 9 9
11 10 11 11 7 7 9 9 7 7 9 11 13 4 9 8 8 7 7 6 6 7 8 8 8 8 8 8 8 8 8 8 7 7 6 7 7 7 7 8 8 8 9 10
9 7 10 6 1 4 8 9 8 7 9 11 12 2 5 6 6 5 5 6 7 8 9 10 9 9 9 9 9 9 9 9 9 8 8 8 8 8 8 9 8 8 9 9
3 8 11 15 15 14 11 10 9 8 8 10 11 3 2 3 4 6 8 10 11 12 12 11 9 9 9 9 10 10 10 10 10 9 10 10 10 10 10 11 10 10 10 9
5 9 13 16 18 16 13 10 9 9 10 10 12 8 4 3 7 9 11 13 15 17 16 12 10 10 10 10 10 10 11 10 10 10 11 11 11 11 11 11 11 11 11 12
7 9 14 17 17 13 8 9 9 9 10 12 14 10 4 6 9 12 15 18 21 19 14 12 12 11 10 10 10 10 9 9 9 10 11 10 11 11 11 12 12 11 11 11
9 11 13 15 15 13 5 11 10 10 10 12 14 11 10 11 14 16 18 21 19 14 14 15 15 12 10 11 10 10 10 9 10 10 11 10 11 11 11 13 12 11 11 11
5 9 7 13 13 8 7 8 9 10 11 14 12 11 12 16 18 19 19 15 16 19 20 18 16 15 13 12 11 10 12 11 11 11 11 11 11 11 10 10 10 10 9 10
1 4 7 7 12 3 5 7 9 11 14 11 11 15 19 21 21 19 16 19 20 20 18 16 17 18 14 13 13 12 13 13 13 13 12 11 11 11 10 10 9 9 9 9
3 6 9 10 12 10 5 7 10 13 8 12 16 19 21 23 21 18 20 22 20 18 17 17 19 18 14 12 11 13 16 15 14 13 12 11 10 11 11 10 10 10 9 9
9 11 9 10 11 4 7 12 15 12 11 17 19 20 21 21 20 21 23 22 20 18 18 17 16 14 12 12 12 14 15 15 14 13 12 11 11 11 11 11 10 10 10 10
7 8 8 8 10 5 10 12 11 11 14 17 19 21 22 22 23 23 23 21 21 21 20 20 14 13 11 11 12 13 13 13 13 13 13 12 11 14 15 10 9 9 9 10
4 5 5 6 7 7 8 9 11 13 16 18 21 22 23 24 25 25 23 21 21 21 19 18 18 16 13 12 12 16 15 14 14 14 14 13 14 12 12 11 11 11 10 11
4 3 5 7 8 9 10 12 15 17 18 20 21 23 23 24 25 25 22 20 19 19 18 18 19 18 16 15 15 15 15 14 14 15 14 13 14 14 12 10 11 11 11 10
4 5 7 10 10 11 12 16 17 19 20 21 22 23 24 25 25 23 20 19 19 20 19 18 17 18 19 17 16 17 16 15 16 15 15 14 13 13 12 11 10 11 10 9
4 5 5 8 10 12 15 17 19 20 21 22 23 23 24 23 23 23 22 20 20 20 20 20 21 21 20 20 19 18 17 16 16 14 14 12 11 10 10 10 11 13 13 12
Wind_Direction
247 244 279 317 312 303 303 304 307 308 59 335 277 284 286 281 243 262 268 247 192 165 163 145 149 152 143 133 134 139 140 139 154 162 180 182 169 181 170 131 104 85 39 33
260 282 326 330 312 293 282 286 289 294 297 271 269 272 271 261 246 247 299 111 218 134 116 120 120 130 136 136 133 132 141 156 167 141 133 136 125 201 184 101 109 105 67 21
281 329 300 287 288 295 295 302 307 312 312 289 273 264 256 243 222 117 38 36 62 92 112 110 101 88 98 116 139 151 149 155 153 142 179 167 156 233 199 133 142 122 85 289
323 311 302 306 312 308 317 331 321 306 290 280 277 276 261 199 128 71 42 24 38 59 60 64 70 78 82 86 90 107 130 140 140 158 201 225 235 261 215 169 133 114 224 242
294 288 290 298 304 309 307 307 293 286 281 276 279 281 278 123 104 86 77 59 57 59 59 55 50 55 61 70 82 87 117 140 150 169 334 319 296 302 329 17 66 255 252 232
295 292 293 298 297 304 307 296 286 286 300 294 320 314 302 87 109 99 81 79 70 68 64 55 47 43 42 41 44 50 67 62 43 18 332 300 306 321 328 323 307 280 269 249
304 312 318 307 308 323 308 299 299 309 336 271 269 270 146 81 80 93 90 82 74 65 59 53 47 41 41 38 32 34 40 35 19 11 358 350 343 326 305 293 292 290 290 287
312 310 289 295 315 315 306 298 300 310 305 265 217 222 110 82 78 79 78 73 68 66 62 56 51 45 40 37 33 30 29 28 21 17 12 8 5 350 341 341 334 323 315 314
309 308 305 308 300 301 306 309 315 306 303 305 265 121 110 82 77 78 76 70 63 62 61 57 53 47 40 37 35 28 25 24 19 13 6 15 15 5 354 344 333 327 328 320
316 315 313 308 301 298 292 305 311 317 318 314 317 75 156 149 134 104 75 63 54 50 51 49 48 45 39 32 31 27 19 14 11 7 2 2 0 357 351 345 341 334 329 322
320 306 302 309 320 321 315 314 327 319 313 315 315 7 99 133 126 100 77 58 38 25 22 19 18 16 10 6 2 1 357 351 347 343 343 339 339 341 336 332 333 332 325 317
338 325 319 318 332 325 302 304 310 313 315 309 306 39 63 77 69 57 49 33 11 353 345 341 341 341 343 343 342 338 333 327 324 324 323 322 323 322 317 316 318 319 317 315
342 323 310 312 329 255 273 288 307 312 303 303 313 59 83 71 59 40 11 345 328 323 319 319 322 323 322 320 317 311 307 303 301 300 298 297 295 295 294 293 295 297 299 302
288 287 290 300 307 310 306 311 323 329 320 322 339 41 96 51 6 347 333 322 315 311 309 306 303 296 294 291 287 285 282 278 276 273 272 271 270 269 270 272 274 276 279 284
322 306 313 309 307 310 311 323 339 351 349 335 339 352 38 20 338 328 323 319 314 310 307 306 303 293 283 279 275 275 272 269 267 267 265 262 262 262 261 263 264 265 268 274
330 310 309 306 307 312 327 14 10 1 350 338 329 336 27 345 333 329 326 321 312 310 317 318 309 301 298 296 294 291 287 282 276 272 272 270 266 265 263 261 260 260 261 264
339 338 320 306 310 309 21 30 13 354 345 338 325 335 350 337 331 326 323 312 314 333 330 318 312 310 308 305 298 294 293 290 285 281 281 278 275 271 266 269 267 262 263 267
349 333 310 304 313 327 70 40 14 344 334 336 336 351 344 328 324 320 312 325 340 329 320 317 314 311 304 302 298 294 294 289 286 283 283 282 281 281 278 275 273 272 273 275
49 326 315 319 330 1 102 35 4 338 324 18 2 339 329 327 318 311 328 337 326 318 315 313 311 307 303 299 295 292 291 289 286 284 281 281 280 281 280 280 279 280 278 279
319 313 296 314 321 333 57 18 343 319 304 20 345 333 328 323 317 318 327 319 314 315 314 309 305 303 299 297 295 291 291 287 284 283 279 278 276 277 277 276 277 279 277 275
335 328 326 329 318 29 27 353 342 324 333 340 330 325 322 320 313 312 315 316 316 313 310 307 304 302 299 298 293 290 290 287 285 283 279 275 273 272 271 267 266 267 270 273
338 334 349 334 320 10 5 353 351 325 324 324 324 323 319 315 313 315 315 315 314 312 310 310 307 302 299 300 299 296 293 293 292 290 287 283 279 279 280 275 272 269 267 269
18 38 336 327 319 346 354 342 340 338 330 326 323 320 318 317 316 315 314 313 313 313 314 315 313 309 307 306 303 300 299 298 295 290 286 283 283 280 277 274 272 270 263 260
89 52 322 315 318 340 342 346 344 337 328 323 321 320 319 316 314 314 314 315 315 317 319 317 314 311 309 308 304 299 297 294 289 286 285 283 280 276 272 267 266 264 262 260
321 333 330 313 348 343 338 343 335 328 326 323 321 319 317 316 315 317 318 320 321 320 319 319 316 312 309 307 304 301 298 293 289 286 284 281 276 274 271 266 260 258 257 253
44 32 347 330 343 326 326 332 328 328 325 323 322 320 319 320 321 323 323 323 321 322 322 319 316 313 311 308 304 301 297 294 288 285 282 277 272 270 269 267 269 256 248 250
Height
1479 1480 1477 1471 1467 1467 1465 1463 1460 1453 1448 1457 1461 1459 1454 1455 1459 1461 1462 1463 1466 1468 1472 1475 1476 1481 1483 1485 1486 1491 1495 1498 1500 1502 1503 1506 1508 1509 1510 1511 1510 1510 1510 1509
1477 1479 1473 1470 1469 1467 1467 1469 1464 1456 1452 1457 1461 1460 1454 1454 1456 1459 1461 1464 1467 1468 1470 1472 1474 1478 1482 1484 1486 1489 1493 1495 1498 1500 1502 1504 1505 1506 1508 1508 1508 1508 1507 1507
1480 1478 1472 1470 1469 1470 1468 1469 1467 1465 1460 1457 1461 1463 1455 1451 1455 1459 1463 1467 1469 1471 1473 1474 1478 1479 1481 1484 1486 1488 1492 1495 1496 1498 1500 1503 1503 1504 1506 1505 1505 1505 1505 1504
1476 1472 1472 1472 1472 1471 1476 1467 1467 1467 1471 1471 1464 1475 1457 1452 1458 1463 1468 1472 1474 1473 1475 1476 1478 1480 1482 1484 1486 1488 1491 1495 1497 1497 1499 1501 1502 1503 1503 1503 1503 1502 1502 1502
1482 1473 1472 1475 1473 1470 1471 1466 1467 1467 1469 1472 1467 1474 1463 1454 1466 1472 1475 1477 1477 1479 1480 1481 1483 1480 1482 1485 1486 1490 1492 1494 1496 1496 1497 1499 1500 1500 1500 1501 1500 1500 1500 1499
1476 1470 1469 1469 1467 1466 1466 1467 1466 1467 1476 1493 1490 1493 1481 1465 1470 1475 1480 1483 1484 1485 1485 1486 1486 1485 1487 1488 1490 1492 1493 1494 1494 1495 1495 1497 1496 1496 1497 1497 1497 1497 1497 1497
1485 1475 1470 1468 1469 1469 1470 1477 1488 1497 1514 1515 1500 1497 1489 1474 1474 1477 1482 1485 1487 1488 1488 1489 1489 1490 1490 1491 1491 1492 1492 1492 1492 1492 1493 1494 1494 1493 1494 1494 1495 1494 1494 1494
1496 1496 1476 1468 1469 1473 1471 1474 1490 1502 1502 1496 1494 1494 1489 1480 1483 1485 1488 1490 1490 1491 1491 1492 1493 1493 1494 1493 1493 1492 1491 1491 1491 1491 1491 1490 1490 1490 1490 1490 1490 1490 1490 1490
1488 1488 1469 1465 1464 1466 1472 1471 1465 1475 1475 1478 1475 1484 1487 1485 1488 1490 1492 1493 1495 1495 1496 1496 1496 1496 1496 1495 1494 1493 1492 1491 1490 1489 1488 1487 1487 1486 1486 1486 1485 1485 1485 1484
1476 1484 1471 1465 1463 1464 1465 1465 1469 1479 1491 1492 1477 1483 1494 1492 1493 1493 1495 1497 1498 1498 1498 1499 1499 1498 1497 1497 1495 1493 1492 1490 1489 1487 1486 1486 1485 1483 1482 1482 1481 1480 1479 1478
1473 1482 1476 1470 1475 1476 1472 1470 1471 1475 1480 1492 1494 1496 1485 1491 1493 1494 1496 1499 1500 1501 1501 1501 1500 1499 1497 1496 1494 1493 1491 1489 1487 1486 1484 1483 1481 1479 1479 1478 1476 1475 1474 1473
1477 1479 1484 1479 1474 1472 1473 1473 1474 1487 1489 1484 1489 1502 1490 1493 1496 1498 1500 1502 1503 1503 1502 1501 1500 1498 1496 1494 1493 1491 1489 1487 1485 1483 1481 1479 1477 1475 1473 1472 1470 1469 1468 1466
1485 1491 1497 1489 1486 1478 1474 1468 1468 1473 1481 1486 1494 1507 1496 1498 1500 1502 1503 1503 1503 1502 1501 1499 1498 1496 1494 1492 1490 1487 1485 1483 1481 1478 1476 1474 1472 1470 1467 1465 1464 1462 1461 1459
1485 1489 1495 1499 1486 1472 1470 1467 1467 1474 1486 1488 1491 1500 1499 1500 1502 1503 1503 1503 1502 1500 1498 1496 1494 1492 1490 1488 1485 1483 1481 1478 1476 1473 1471 1468 1466 1464 1461 1459 1457 1456 1454 1452
1483 1487 1484 1478 1469 1465 1466 1468 1469 1476 1483 1491 1491 1495 1498 1500 1502 1502 1502 1500 1498 1496 1493 1491 1489 1487 1485 1483 1481 1478 1476 1473 1471 1468 1466 1463 1461 1459 1456 1454 1452 1450 1448 1446
1484 1488 1486 1482 1470 1466 1469 1473 1477 1483 1486 1489 1491 1494 1496 1499 1500 1500 1499 1497 1494 1490 1488 1487 1485 1483 1481 1478 1476 1473 1471 1468 1466 1463 1460 1458 1456 1453 1451 1448 1446 1444 1442 1440
1487 1492 1493 1489 1473 1471 1485 1491 1491 1492 1491 1494 1496 1497 1496 1498 1499 1498 1496 1493 1488 1486 1485 1483 1481 1478 1475 1473 1470 1467 1464 1462 1459 1457 1454 1452 1449 1447 1444 1442 1440 1438 1437 1435
1493 1495 1494 1487 1482 1497 1501 1493 1495 1497 1494 1493 1493 1496 1499 1499 1497 1496 1493 1488 1486 1484 1481 1478 1476 1472 1469 1466 1463 1460 1457 1455 1452 1449 1447 1445 1443 1440 1438 1436 1434 1432 1431 1430
1490 1494 1495 1492 1493 1495 1498 1499 1500 1502 1499 1499 1501 1501 1500 1497 1494 1491 1488 1486 1484 1480 1477 1473 1470 1466 1462 1459 1456 1452 1449 1447 1444 1441 1439 1437 1435 1433 1431 1429 1427 1426 1424 1423
1485 1487 1490 1492 1500 1502 1506 1500 1500 1500 1498 1504 1503 1501 1498 1495 1490 1486 1486 1483 1479 1475 1471 1467 1463 1459 1455 1451 1448 1444 1441 1438 1436 1433 1431 1429 1427 1425 1423 1421 1420 1418 1417 1416
1492 1491 1492 1496 1500 1496 1503 1501 1501 1506 1507 1504 1503 1500 1497 1493 1491 1485 1480 1476 1473 1468 1464 1460 1455 1451 1447 1443 1440 1436 1432 1429 1427 1424 1422 1420 1418 1416 1414 1413 1411 1411 1410 1409
1497 1498 1500 1502 1504 1508 1505 1504 1508 1510 1506 1504 1501 1498 1494 1490 1485 1480 1475 1470 1466 1461 1457 1452 1447 1443 1439 1435 1431 1426 1423 1420 1418 1415 1412 1410 1408 1407 1406 1404 1403 1402 1402 1401
1496 1504 1505 1507 1509 1506 1506 1507 1508 1507 1504 1502 1498 1494 1490 1484 1479 1474 1469 1464 1459 1454 1449 1445 1440 1435 1430 1427 1423 1418 1414 1411 1407 1404 1402 1400 1398 1397 1396 1395 1394 1394 1394 1394
1499 1503 1503 1505 1503 1504 1506 1506 1506 1505 1503 1499 1495 1491 1486 1480 1474 1468 1463 1457 1452 1447 1442 1437 1432 1426 1421 1417 1413 1409 1404 1400 1397 1393 1390 1389 1387 1386 1386 1385 1385 1386 1386 1386
1500 1500 1503 1504 1504 1506 1505 1506 1505 1502 1499 1495 1491 1487 1481 1475 1468 1463 1457 1451 1446 1441 1435 1430 1424 1418 1412 1407 1402 1398 1394 1389 1385 1382 1380 1378 1377 1376 1375 1375 1376 1376 1377 1379
1499 1504 1508 1509 1509 1509 1507 1505 1503 1499 1496 1491 1486 1481 1476 1471 1464 1458 1452 1447 1441 1434 1428 1422 1416 1409 1403 1397 1391 1387 1383 1379 1374 1371 1369 1368 1367 1366 1366 1366 1367 1368 1369 1371